User: anonymous   Login
Location: Unspecified
(0.0000°N, 0.0000°E)
Time: 01:33:53
(UTC+01:00)
Language:

SWIFT - Orbit

View from above orbital plane
View from above orbital plane
View from above satellite
View from above satellite

Ground track
Ground track

The orbit data is extracted from the following two-line orbital elements,

1 28485U 04047A   15058.83757634  .00003649  00000-0  24506-3 0  9996
2 28485 020.5568 241.0397 0012364 076.5543 283.6268 15.00956113561623
Epoch (UTC): 27 February 2015 20:06:06
Eccentricity: 0.0012364
inclination: 20.5568°
perigee height: 555 km
apogee height: 572 km
right ascension of ascending node: 241.0397°
argument of perigee: 76.5543°
revolutions per day: 15.00956113
mean anomaly at epoch: 283.6268°
orbit number at epoch: 56162

The dashed part of the orbit path shows where the satellite is in the earth's shadow,  

DLR